This is the latest recevied weather packets stored in our database for station/object KA1JKB. If no packets are shown the sender has not sent any weather packets the latest 10 day(s).
| Time | Temp. | Humidity | Pressure | Rain* | Wind** | Luminosity | Snow |
|---|---|---|---|---|---|---|---|
| 1777215404 | 12.22° C | 74% | 1018.4 hPa | 0 mm | - | 729 W/m² | - |
| 1777215102 | 12.22° C | 75% | 1018.4 hPa | 0 mm | - | 732 W/m² | - |
| 1777214797 | 12.22° C | 74% | 1018.4 hPa | 0 mm | - | 757 W/m² | - |
| 1777214496 | 11.67° C | 77% | 1018.3 hPa | 0 mm | - | 700 W/m² | - |
| 1777214192 | 11.67° C | 76% | 1018.3 hPa | 0 mm | - | 693 W/m² | - |
| 1777213891 | 12.22° C | 79% | 1018.3 hPa | 0 mm | - | 700 W/m² | - |
| 1777213586 | 11.67° C | 78% | 1018.3 hPa | 0 mm | - | 680 W/m² | - |
| 1777213283 | 11.67° C | 77% | 1018.2 hPa | 0 mm | - | 664 W/m² | - |
| 1777212979 | 11.67° C | 77% | 1018.4 hPa | 0 mm | - | 655 W/m² | - |
| 1777212677 | 11.67° C | 81% | 1018.4 hPa | 0 mm | - | 631 W/m² | - |
| 1777212375 | 11.11° C | 79% | 1018.3 hPa | 0 mm | - | 590 W/m² | - |
| 1777212072 | 11.11° C | 79% | 1018.2 hPa | 0 mm | - | 599 W/m² | - |
| 1777211768 | 10.56° C | 80% | 1018.2 hPa | 0 mm | - | 567 W/m² | - |
| 1777211466 | 10.56° C | 81% | 1018.3 hPa | 0 mm | - | 563 W/m² | - |
| 1777211162 | 10.56° C | 80% | 1018.4 hPa | 0 mm | - | 534 W/m² | - |
| 1777210859 | 10.56° C | 81% | 1018.2 hPa | 0 mm | - | 511 W/m² | - |
| 1777210557 | 10.56° C | 81% | 1018.1 hPa | 0 mm | - | 470 W/m² | - |
| 1777210255 | 10.56° C | 80% | 1018.1 hPa | 0 mm | - | 472 W/m² | - |
| 1777209950 | 10° C | 83% | 1018.1 hPa | 0 mm | - | 500 W/m² | - |
| 1777209646 | 10° C | 82% | 1017.7 hPa | 0 mm | - | 465 W/m² | - |
| 1777209342 | 10° C | 83% | 1018.1 hPa | 0 mm | - | 431 W/m² | - |
| 1777209039 | 10° C | 82% | 1017.8 hPa | 0 mm | - | 415 W/m² | - |
| 1777208735 | 10° C | 85% | 1017.9 hPa | 0 mm | - | 406 W/m² | - |
| 1777208432 | 9.44° C | 85% | 1018.1 hPa | 0 mm | - | 360 W/m² | - |
| 1777208129 | 10° C | 85% | 1018.1 hPa | 0 mm | - | 328 W/m² | - |
* Rain latest hour (hover to see other rain measurements)
** Current wind speed in m/s (hover to see current wind gust speed)